TimeCST,TemperatureF,Dew PointF,Humidity,Sea Level PressureIn,VisibilityMPH,Wind Direction,Wind SpeedMPH,Gust SpeedMPH,PrecipitationIn,Events,Conditions,WindDirDegrees,DateUTC
12:15 AM,48.2,46.4,93,29.79,10.0,South,13.8,-,N/A,,Clear,190,2011-12-30 06:15:00
12:35 AM,48.2,46.4,93,29.80,10.0,SSW,11.5,-,N/A,,Clear,200,2011-12-30 06:35:00
12:55 AM,48.2,46.4,93,29.79,10.0,South,15.0,-,N/A,,Clear,190,2011-12-30 06:55:00
1:35 AM,48.2,46.4,93,29.79,10.0,SSW,12.7,-,N/A,,Clear,200,2011-12-30 07:35:00
1:55 AM,48.2,46.4,93,29.79,10.0,SSW,15.0,-,N/A,,Clear,210,2011-12-30 07:55:00
2:15 AM,48.2,46.4,93,29.80,10.0,SSW,12.7,-,N/A,,Clear,210,2011-12-30 08:15:00
3:15 AM,48.2,46.4,93,29.79,10.0,South,15.0,-,N/A,,Scattered Clouds,190,2011-12-30 09:15:00
4:15 AM,48.2,46.4,93,29.75,10.0,South,20.7,-,N/A,,Partly Cloudy,190,2011-12-30 10:15:00
4:35 AM,48.2,46.4,93,29.75,10.0,South,19.6,24.2,N/A,,Clear,190,2011-12-30 10:35:00
4:55 AM,48.2,46.4,93,29.75,10.0,South,19.6,-,N/A,,Clear,190,2011-12-30 10:55:00
5:15 AM,48.2,46.4,93,29.76,10.0,SSW,17.3,-,N/A,,Clear,200,2011-12-30 11:15:00
5:35 AM,48.2,46.4,93,29.76,10.0,SSW,19.6,-,N/A,,Clear,200,2011-12-30 11:35:00
7:15 AM,46.4,46.4,100,29.80,8.0,SW,13.8,-,N/A,,Clear,220,2011-12-30 13:15:00
7:35 AM,46.4,46.4,100,29.80,6.0,SW,11.5,-,N/A,,Clear,220,2011-12-30 13:35:00
7:55 AM,46.4,46.4,100,29.81,5.0,SSW,10.4,-,N/A,,Clear,210,2011-12-30 13:55:00
8:15 AM,48.2,46.4,93,29.82,6.0,SW,11.5,-,N/A,,Clear,220,2011-12-30 14:15:00
8:35 AM,48.2,46.4,93,29.82,9.0,SW,10.4,-,N/A,,Clear,220,2011-12-30 14:35:00
9:15 AM,48.2,46.4,93,29.84,10.0,SW,10.4,-,N/A,,Clear,220,2011-12-30 15:15:00
9:35 AM,50.0,44.6,82,29.84,10.0,SW,9.2,-,N/A,,Clear,220,2011-12-30 15:35:00
10:15 AM,51.8,44.6,76,29.84,10.0,SW,10.4,-,N/A,,Clear,220,2011-12-30 16:15:00
10:35 AM,51.8,46.4,82,29.84,10.0,SW,12.7,-,N/A,,Clear,220,2011-12-30 16:35:00
10:55 AM,51.8,46.4,82,29.84,10.0,SW,13.8,-,N/A,,Clear,220,2011-12-30 16:55:00
11:15 AM,53.6,44.6,72,29.83,10.0,SW,16.1,-,N/A,,Clear,230,2011-12-30 17:15:00
11:35 AM,53.6,46.4,77,29.83,10.0,SW,17.3,-,N/A,,Clear,220,2011-12-30 17:35:00
11:55 AM,55.4,44.6,67,29.82,10.0,SW,19.6,-,N/A,,Clear,220,2011-12-30 17:55:00
12:35 PM,59.0,41.0,51,29.82,10.0,WSW,18.4,24.2,N/A,,Clear,250,2011-12-30 18:35:00
12:55 PM,60.8,37.4,42,29.82,10.0,WSW,20.7,26.5,N/A,,Clear,250,2011-12-30 18:55:00
1:15 PM,60.8,37.4,42,29.81,10.0,WSW,20.7,24.2,N/A,,Clear,250,2011-12-30 19:15:00
1:35 PM,62.6,35.6,37,29.81,10.0,WSW,18.4,24.2,N/A,,Clear,240,2011-12-30 19:35:00
1:55 PM,62.6,35.6,37,29.81,10.0,WSW,16.1,19.6,N/A,,Clear,250,2011-12-30 19:55:00
2:15 PM,62.6,35.6,37,29.82,10.0,WSW,13.8,19.6,N/A,,Clear,250,2011-12-30 20:15:00
2:55 PM,62.6,33.8,34,29.82,10.0,West,12.7,-,N/A,,Clear,260,2011-12-30 20:55:00
3:15 PM,62.6,28.4,27,29.83,10.0,West,18.4,26.5,N/A,,Clear,270,2011-12-30 21:15:00
3:35 PM,62.6,28.4,27,29.83,10.0,West,17.3,-,N/A,,Clear,270,2011-12-30 21:35:00
3:55 PM,62.6,28.4,27,29.84,10.0,West,21.9,26.5,N/A,,Clear,260,2011-12-30 21:55:00
4:15 PM,62.6,24.8,24,29.85,10.0,West,17.3,27.6,N/A,,Clear,270,2011-12-30 22:15:00
4:35 PM,60.8,26.6,27,29.85,10.0,West,13.8,19.6,N/A,,Clear,270,2011-12-30 22:35:00
4:55 PM,57.2,26.6,31,29.86,10.0,West,11.5,-,N/A,,Clear,260,2011-12-30 22:55:00
5:15 PM,55.4,26.6,33,29.86,10.0,West,9.2,-,N/A,,Clear,260,2011-12-30 23:15:00
5:35 PM,55.4,28.4,36,29.87,10.0,WSW,9.2,-,N/A,,Clear,240,2011-12-30 23:35:00
5:55 PM,53.6,28.4,38,29.87,10.0,WSW,8.1,-,N/A,,Clear,240,2011-12-30 23:55:00
6:15 PM,53.6,28.4,38,29.88,10.0,WSW,8.1,-,N/A,,Clear,240,2011-12-31 00:15:00
6:35 PM,53.6,26.6,35,29.89,10.0,WSW,9.2,-,N/A,,Clear,240,2011-12-31 00:35:00
6:55 PM,53.6,26.6,35,29.91,10.0,West,12.7,-,N/A,,Clear,260,2011-12-31 00:55:00
7:15 PM,53.6,26.6,35,29.92,10.0,WSW,9.2,-,N/A,,Clear,250,2011-12-31 01:15:00
7:35 PM,51.8,26.6,38,29.93,10.0,WSW,9.2,-,N/A,,Clear,250,2011-12-31 01:35:00
7:55 PM,51.8,26.6,38,29.94,10.0,WSW,8.1,-,N/A,,Clear,250,2011-12-31 01:55:00
8:15 PM,51.8,24.8,35,29.95,10.0,WSW,6.9,-,N/A,,Clear,250,2011-12-31 02:15:00
8:35 PM,51.8,26.6,38,29.95,10.0,WSW,5.8,-,N/A,,Clear,250,2011-12-31 02:35:00
8:55 PM,51.8,24.8,35,29.95,10.0,WSW,4.6,-,N/A,,Clear,250,2011-12-31 02:55:00
9:15 PM,46.4,28.4,50,29.95,10.0,WSW,6.9,-,N/A,,Clear,240,2011-12-31 03:15:00
9:35 PM,48.2,26.6,43,29.95,10.0,SW,8.1,-,N/A,,Clear,230,2011-12-31 03:35:00
9:55 PM,51.8,24.8,35,29.96,10.0,WSW,9.2,-,N/A,,Clear,240,2011-12-31 03:55:00
10:15 PM,46.4,26.6,46,29.98,10.0,SW,9.2,-,N/A,,Clear,220,2011-12-31 04:15:00
10:35 PM,46.4,26.6,46,29.98,10.0,SW,10.4,-,N/A,,Clear,220,2011-12-31 04:35:00
10:55 PM,48.2,26.6,43,29.98,10.0,WSW,9.2,-,N/A,,Clear,240,2011-12-31 04:55:00
11:35 PM,48.2,26.6,43,29.99,10.0,WSW,8.1,-,N/A,,Clear,250,2011-12-31 05:35:00
11:55 PM,48.2,26.6,43,29.98,10.0,WSW,5.8,-,N/A,,Clear,250,2011-12-31 05:55:00